Simultaneous Nadir Overpasses (SNOs) Predictions

Prediction of SNOs between NPP and TERRA Satellite Orbit:

Table of predicted SNOs for the next 14.0 days since TLE Epoch: 12/8/2013
Index Date (NPP) Time (NPP) Lat,Lon (NPP) SZA (NPP ) Date (TERRA) Time (TERRA) Lat,Lon (TERRA) SZA (TERRA ) Distance(km) Time Diff (sec)
1 12/09/2013 17:33:35 68.54, -84.67 91.31 12/09/2013 17:34:22 68.53, -84.70 91.29 2.13 47
2 12/09/2013 18:24:16 -68.41, 82.83 88.83 12/09/2013 18:23:52 -68.42, 82.79 88.82 1.68 24
3 12/09/2013 19:14:42 67.30,-108.49 90.08 12/09/2013 19:13:36 67.36,-110.79 90.12 98.99 66
4 12/12/2013 09:00:03 -69.38,-137.36 87.64 12/12/2013 09:01:11 -69.25,-135.55 87.77 72.34 68
5 12/12/2013 09:50:33 68.50, 31.16 91.48 12/12/2013 09:50:50 68.48, 31.12 91.46 2.66 17
6 12/12/2013 10:41:14 -68.37,-161.35 88.65 12/12/2013 10:40:20 -68.37,-161.38 88.65 1.51 54
7 12/15/2013 01:16:48 -68.59, -20.51 88.26 12/15/2013 01:17:51 -68.57, -20.53 88.29 2.93 63
8 12/15/2013 02:07:32 68.46, 146.97 91.61 12/15/2013 02:07:18 68.46, 146.98 91.61 0.29 14
9 12/15/2013 02:58:06 -67.95, -45.05 88.90 12/15/2013 02:56:54 -68.01, -45.92 88.84 36.84 72
10 12/17/2013 17:33:47 -68.56, 95.30 88.19 12/17/2013 17:34:18 -68.58, 95.36 88.17 3.30 31
11 12/17/2013 18:24:31 68.43, -97.22 91.69 12/17/2013 18:23:46 68.41, -97.20 91.67 2.29 45
12 12/20/2013 09:00:04 68.61, 43.67 91.93 12/20/2013 09:01:16 68.61, 43.66 91.92 0.96 72
13 12/20/2013 09:50:45 -68.48,-148.82
